Flag Weather past 2 weeks in Mendrisio, Ticino, Switzerland

Now
42 °F

Quite cool.


Feels Like: 42 °F
Forecast: 41 / 45 °F
Wind: 1 mph from Southwest

Location: Stabio

Current Time: Nov 27, 2014 at 7:03:40 AM

Latest Report: Nov 27, 2014 at 6:00 AM


Visibility: N/A

Pressure: 30.00 "Hg

Humidity: 100%

Dew point: 42 °F

Location of MendrisioLocation

Historic Weather in Mendrisio — Graph

°F

Mendrisio temperature yesterday

Maximum temperature yesterday: 48 °F (at 12:00 AM)
Minimum temperature yesterday: 43 °F (at 10:00 PM)
Average temperature yesterday: 46 °F

Past Weeks' High & Low Weather Summary

 TemperatureHumidityPressure
High61 °F (Nov 13, 2:00 PM)100% (Nov 13, 7:00 PM)30.38 "Hg (Nov 13, 7:00 PM)
Low32 °F (Nov 22, 8:00 AM)50% (Nov 20, 2:00 PM)29.50 "Hg (Nov 15, 11:00 PM)
Average45 °F92%30.01 "Hg
* Reported Nov 12 5:00 AM — Nov 27 5:00 AM, Mendrisio, Weather by CustomWeather, © 2014

Note: Actual official high and low records may vary slightly from our data, if they occured in-between our weather recording intervals... More about our weather records

Advertising

Mendrisio weather history for previous 24 hours

 ConditionsComfort  
Time TempWeatherWind HumidityBarometerVisibility
5:00 AM
Nov 27
42 °FQuite cool.No wind100%30.01 "HgN/A
4:00 AM42 °FQuite cool.No wind100%30.02 "HgN/A
3:00 AM42 °FQuite cool.No wind100%30.03 "HgN/A
2:00 AM43 °FQuite cool.2 mph97%30.05 "HgN/A
1:00 AM43 °FQuite cool.2 mph98%30.06 "HgN/A
12:00 AM43 °FQuite cool.2 mph98%30.06 "HgN/A
11:00 PM
Nov 26
44 °FQuite cool.No wind100%30.07 "HgN/A
10:00 PM43 °FQuite cool.No wind100%30.07 "HgN/A
9:00 PM44 °FQuite cool.1 mph100%30.07 "HgN/A
8:00 PM44 °FQuite cool.2 mph100%30.07 "HgN/A
7:00 PM44 °FQuite cool.1 mph100%30.07 "HgN/A
6:00 PM44 °FQuite cool.2 mph100%30.07 "HgN/A
5:00 PM45 °FCool.3 mph100%30.06 "HgN/A
4:00 PM47 °FCool.2 mph97%30.05 "HgN/A
3:00 PM47 °FCool.1 mph97%30.05 "HgN/A
2:00 PM47 °FCool.1 mph98%30.06 "HgN/A
1:00 PM47 °FCool.No wind97%30.08 "HgN/A
12:00 PM47 °FCool.No wind97%30.09 "HgN/A
11:00 AM47 °FCool.1 mph97%30.10 "HgN/A
10:00 AM47 °FCool.1 mph100%30.10 "HgN/A
9:00 AM46 °FCool.2 mph100%30.10 "HgN/A
8:00 AM45 °FCool.No wind100%30.10 "HgN/A
7:00 AM45 °FCool.1 mph100%30.10 "HgN/A
Weather by CustomWeather, © 2014

See weather overviewHow to use our weather pages